Weather History for KCCA - November, 2012

Change the Weather History Date:

Friday, November 30, 2012

  Actual Average (KFLP) Record (KFLP)
Temperature  
Mean Temperature 46 °F -  
Max Temperature 60 °F 53 °F 75 °F (2014)
Min Temperature 32 °F 34 °F 19 °F (2005)
Degree Days  
Heating Degree Days 19    
Moisture  
Dew Point 40 °F    
Average Humidity 83    
Maximum Humidity 100    
Minimum Humidity 55    
Precipitation  
Precipitation 0.00 in - - ()
Sea Level Pressure  
Sea Level Pressure 30.19 in    
Wind  
Wind Speed 0 mph (SE)    
Max Wind Speed 7 mph    
Max Gust Speed -    
Visibility 9 miles    
Events      
Averages and records for this station are not official NWS values.
T = Trace of Precipitation, MM = Missing Value Source: NWS Daily Summary

Daily Weather History Graph

Daily Weather History Graph

Search for Another Location

Airport or City:

Trip Planner

Search our weather history database for the weather conditions in past years. The results will help you decide how hot, cold, wet, or windy it might be!

Date:

Astronomy

Nov. 30, 2012 Rise Set
Actual Time 7:00 AM CST 4:56 PM CST
Civil Twilight 6:32 AM CST 5:24 PM CST
Nautical Twilight 6:00 AM CST 5:56 PM CST
Astronomical Twilight 5:30 AM CST 6:27 PM CST
Moon 6:51 PM CST (11/30) 8:32 AM CST (11/30)
Length of Visible Light 10h 52m
Length of Day
9h 56m
Waning Gibbous, 96% of the Moon is Illuminated
Nov 30
Waning Gibbous
Dec 6
Last Quarter
Dec 13
New
Dec 19
First Quarter
Dec 28
Full

Hourly Weather History & Observations

Time (CST) Temp. Dew Point Humidity Pressure Visibility Wind Dir Wind Speed Gust Speed Precip Events Conditions
12:15 AM 32.0 °F 32.0 °F 100% 30.23 in 7.0 mi Calm Calm - N/A   Clear
12:35 AM 32.0 °F 32.0 °F 100% 30.23 in 7.0 mi Calm Calm - N/A   Clear
12:55 AM 32.0 °F 32.0 °F 100% 30.22 in 8.0 mi Calm Calm - N/A   Clear
1:15 AM 32.0 °F 32.0 °F 100% 30.23 in 6.0 mi Calm Calm - N/A   Clear
1:35 AM 32.0 °F 32.0 °F 100% 30.22 in 7.0 mi Calm Calm - N/A   Clear
1:55 AM 32.0 °F 32.0 °F 100% 30.23 in 6.0 mi Calm Calm - N/A   Clear
2:15 AM 32.0 °F 32.0 °F 100% 30.22 in 6.0 mi Calm Calm - N/A   Clear
2:35 AM 32.0 °F 32.0 °F 100% 30.22 in 7.0 mi Calm Calm - N/A   Clear
2:55 AM 32.0 °F 32.0 °F 100% 30.23 in 7.0 mi Calm Calm - N/A   Clear
3:15 AM 32.0 °F 32.0 °F 100% 30.22 in 8.0 mi Calm Calm - N/A   Clear
3:35 AM 32.0 °F 32.0 °F 100% 30.22 in 7.0 mi Calm Calm - N/A   Scattered Clouds
3:55 AM 32.0 °F 32.0 °F 100% 30.22 in 7.0 mi Calm Calm - N/A   Scattered Clouds
4:15 AM 32.0 °F 32.0 °F 100% 30.22 in 9.0 mi Calm Calm - N/A   Clear
4:35 AM 32.0 °F 32.0 °F 100% 30.21 in 7.0 mi Calm Calm - N/A   Clear
4:55 AM 32.0 °F 32.0 °F 100% 30.21 in 8.0 mi Calm Calm - N/A   Clear
5:15 AM 32.0 °F 32.0 °F 100% 30.21 in 7.0 mi Calm Calm - N/A   Clear
5:35 AM 32.0 °F 32.0 °F 100% 30.21 in 7.0 mi Calm Calm - N/A   Clear
5:55 AM 32.0 °F 32.0 °F 100% 30.21 in 8.0 mi Calm Calm - N/A   Clear
6:15 AM 32.0 °F 32.0 °F 100% 30.22 in 7.0 mi Calm Calm - N/A   Scattered Clouds
6:35 AM 32.0 °F 32.0 °F 100% 30.22 in 9.0 mi Calm Calm - N/A   Overcast
6:55 AM 33.8 °F 32.0 °F 93% 30.22 in 10.0 mi Calm Calm - N/A   Overcast
7:15 AM 33.8 °F 32.0 °F 93% 30.22 in 10.0 mi Calm Calm - N/A   Overcast
7:35 AM 33.8 °F 32.0 °F 93% 30.22 in 10.0 mi Calm Calm - N/A   Overcast
7:55 AM 35.6 °F 32.0 °F 87% 30.22 in 10.0 mi Calm Calm - N/A   Scattered Clouds
8:15 AM 35.6 °F 33.8 °F 93% 30.23 in 9.0 mi Calm Calm - N/A   Clear
8:35 AM 35.6 °F 33.8 °F 93% 30.23 in 9.0 mi Calm Calm - N/A   Clear
8:55 AM 37.4 °F 33.8 °F 87% 30.24 in 10.0 mi Calm Calm - N/A   Clear
9:15 AM 39.2 °F 35.6 °F 87% 30.24 in 10.0 mi Calm Calm - N/A   Clear
9:35 AM 39.2 °F 35.6 °F 87% 30.24 in 10.0 mi Calm Calm - N/A   Mostly Cloudy
9:55 AM 42.8 °F 35.6 °F 76% 30.24 in 10.0 mi Calm Calm - N/A   Overcast
10:15 AM 44.6 °F 37.4 °F 76% 30.24 in 10.0 mi Calm Calm - N/A   Overcast
10:35 AM 46.4 °F 39.2 °F 76% 30.24 in 10.0 mi Calm Calm - N/A   Overcast
10:55 AM 48.2 °F 37.4 °F 66% 30.23 in 10.0 mi Calm Calm - N/A   Overcast
11:15 AM 50.0 °F 37.4 °F 62% 30.22 in 10.0 mi Calm Calm - N/A   Overcast
11:35 AM 51.8 °F 37.4 °F 58% 30.21 in 9.0 mi Calm Calm - N/A   Overcast
11:55 AM 53.6 °F 39.2 °F 58% 30.20 in 10.0 mi Calm Calm - N/A   Overcast
12:15 PM 55.4 °F 41.0 °F 58% 30.19 in 10.0 mi Calm Calm - N/A   Overcast
12:35 PM 55.4 °F 41.0 °F 58% 30.18 in 9.0 mi Calm Calm - N/A   Overcast
1:15 PM 57.2 °F 42.8 °F 59% 30.16 in 10.0 mi Calm Calm - N/A   Overcast
1:35 PM 59.0 °F 44.6 °F 59% 30.15 in 10.0 mi SSE 6.9 mph - N/A   Overcast
1:55 PM 59.0 °F 44.6 °F 59% 30.15 in 10.0 mi Calm Calm - N/A   Overcast
2:15 PM 60.8 °F 44.6 °F 55% 30.14 in 10.0 mi Calm Calm - N/A   Overcast
2:35 PM 60.8 °F 44.6 °F 55% 30.14 in 10.0 mi SSE 3.5 mph - N/A   Overcast
2:55 PM 60.8 °F 46.4 °F 59% 30.14 in 10.0 mi Calm Calm - N/A   Overcast
3:15 PM 60.8 °F 46.4 °F 59% 30.14 in 10.0 mi Calm Calm - N/A   Partly Cloudy
3:35 PM 59.0 °F 46.4 °F 63% 30.14 in 10.0 mi East 5.8 mph - N/A   Clear
4:15 PM 59.0 °F 46.4 °F 63% 30.14 in 10.0 mi Calm Calm - N/A   Clear
4:35 PM 57.2 °F 46.4 °F 67% 30.14 in 10.0 mi Calm Calm - N/A   Clear
4:55 PM 55.4 °F 46.4 °F 72% 30.14 in 10.0 mi Calm Calm - N/A   Mostly Cloudy
5:15 PM 53.6 °F 46.4 °F 77% 30.14 in 10.0 mi Calm Calm - N/A   Overcast
5:35 PM 53.6 °F 46.4 °F 77% 30.14 in 10.0 mi Calm Calm - N/A   Scattered Clouds
5:55 PM 51.8 °F 46.4 °F 82% 30.15 in 10.0 mi Calm Calm - N/A   Mostly Cloudy
6:15 PM 51.8 °F 46.4 °F 82% 30.15 in 10.0 mi Calm Calm - N/A   Overcast
6:35 PM 51.8 °F 46.4 °F 82% 30.16 in 10.0 mi Calm Calm - N/A   Overcast
6:55 PM 53.6 °F 48.2 °F 82% 30.16 in 10.0 mi Calm Calm - N/A   Overcast
7:15 PM 51.8 °F 48.2 °F 88% 30.16 in 9.0 mi Calm Calm - N/A   Overcast
7:35 PM 53.6 °F 48.2 °F 82% 30.16 in 9.0 mi Calm Calm - N/A   Overcast
7:55 PM 51.8 °F 48.2 °F 88% 30.15 in 10.0 mi Calm Calm - N/A   Overcast
8:15 PM 51.8 °F 48.2 °F 88% 30.15 in 9.0 mi Calm Calm - N/A   Overcast
8:35 PM 51.8 °F 48.2 °F 88% 30.15 in 9.0 mi Calm Calm - N/A   Overcast
8:55 PM 51.8 °F 48.2 °F 88% 30.16 in 9.0 mi Calm Calm - N/A   Overcast
9:15 PM 53.6 °F 48.2 °F 82% 30.15 in 10.0 mi Calm Calm - N/A   Overcast
9:35 PM 53.6 °F 48.2 °F 82% 30.15 in 10.0 mi Calm Calm - N/A   Overcast
9:55 PM 53.6 °F 48.2 °F 82% 30.16 in 10.0 mi Calm Calm - N/A   Overcast
10:15 PM 51.8 °F 48.2 °F 88% 30.16 in 9.0 mi Calm Calm - N/A   Overcast
10:35 PM 53.6 °F 48.2 °F 82% 30.16 in 10.0 mi Calm Calm - N/A   Overcast
10:55 PM 53.6 °F 48.2 °F 82% 30.16 in 10.0 mi Calm Calm - N/A   Overcast
11:15 PM 53.6 °F 48.2 °F 82% 30.15 in 10.0 mi Calm Calm - N/A   Overcast
11:35 PM 53.6 °F 48.2 °F 82% 30.15 in 10.0 mi Calm Calm - N/A   Overcast
11:55 PM 53.6 °F 50.0 °F 88% 30.15 in 10.0 mi Calm Calm - N/A   Overcast